Regional Weather Roundup
Issued by NWS New Orleans/Baton Rouge, LA

Home | Current Version | Previous Version | Text Only | Print | Product List | Glossary On
Versions: 1 2 3 4 5 6 7 8 9 10 11 12 13 14 15 16 17 18 19 20 21 22 23 24 25 26 27 28 29 30 31 32 33 34 35 36 37 38 39 40 41 42 43 44 45 46 47 48 49 50
000
ASUS44 KLIX 280511
RWRLIX
NEW ORLEANS REGIONAL WEATHER ROUNDUP
NATIONAL WEATHER SERVICE NEW ORLEANS LA
1200 AM CDT WED SEP 28 2016

NOTE: "FAIR" INDICATES FEW OR NO CLOUDS BELOW 12,000 FEET WITH NO
      SIGNIFICANT WEATHER AND/OR OBSTRUCTIONS TO VISIBILITY.
      SKY/WX - SKY CONDITION AND SIGNIFICANT WEATHER.
      TMP - AIR TEMPERATURE.     DP    - DEWPOINT TEMPERATURE.
      RH  - RELATIVE HUMIDITY.   PRES  - PRESSURE.
      HI  - HEAT INDEX.          WCI   - WIND CHILL INDEX.

*  THESE STATIONS ARE NOT NWS OR FAA STATIONS AND ARE NOT UNDER
   NWS QUALITY CONTROL.

LAZ038-040-048-061>063-065>067-069-280600-
SOUTHEAST LOUISIANA

CITY           SKY/WX    TMP DP  RH WIND       PRES   REMARKS
N.O. AUDUBON     N/A     79  73  83 MISG        N/A
N.O. INTL ARPT MOCLDY    80  74  81 W5        29.95F
N.O. LAKEFRONT PTCLDY    82  74  76 W8        29.95F
N.O. DOWNTOWN*   N/A     82  72  71 CALM      29.95F
RESERVE*         N/A     76  74  94 CALM      29.96F
SLIDELL        PTCLDY    76  73  91 N3        29.94F
BATON ROUGE    MOCLDY    74  67  78 NW5       29.96F
BOOTHVILLE     CLEAR     78  74  87 W5        29.95F
BELLE CHASSE   PTCLDY    77  74  90 NW3       29.95S
BOGALUSA*        N/A     74  68  83 CALM      29.97F
GALLIANO*      CLEAR    N/A N/A N/A CALM      29.95F FOG
NEW ROADS*       N/A     71  68  88 MISG      29.97F
GONZALES*        N/A     75  69  83 CALM      29.96S
HAMMOND*       CLOUDY    73  68  83 CALM      29.96S
HOUMA*         PTCLDY    72  71  99 CALM      29.96F
PORT FOURCHON* CLEAR     82  75  78 CALM      29.95F

$$

MSZ070-080>082-280600-
SOUTHERN MISSISSIPPI

CITY           SKY/WX    TMP DP  RH WIND       PRES   REMARKS
MCCOMB         CLOUDY    71  65  81 N5        29.98S
GULFPORT       CLOUDY    77  74  90 CALM      29.94S
BILOXI         CLOUDY    79  77  92 VRB1      29.94S
PASCAGOULA     MOCLDY    72  72 100 CALM      29.94S

$$

COASTAL OBSERVATIONS
LAKE AND NEARSHORE STATIONS

STATION/POSITION TIME  TEMP    WIND        PRES    WAVE
                       AIR SEA DIR/SP/G            HT/PER
                 (UTC) (F)     (DEG/KT/KT) (MB)    (FT/S)
PASCAGOULA       0400   79     300/  4/  5 1013.3
WAVELAND YACHT   0400   78 86  290/  3/  4 1014.2
GRAND ISLE       0400   83 88  310/  6/  7 1014.5
SOUTHWEST PASS   0400          300/  5/ 10   N/A
NEW CANAL        0400   80 87  230/  2/  3 1013.7
SHELL BEACH      0400   80 88  260/  7/  8 1014.3

OFFSHORE STATIONS

STATION/POSITION TIME  TEMP    WIND        PRES    WAVE
                       AIR SEA DIR/SP/G            HT/PER
                 (UTC) (F)     (DEG/KT/KT) (MB)    (FT/S)
64 S DAUPHIN ISL 0400   83 85  260/  4/  6 1013.9

$$




USA.gov is the U.S. government's official web portal to all federal, state and local government web resources and services.